This is the latest recevied weather packets stored in our database for station/object OK2JF-6. If no packets are shown the sender has not sent any weather packets the latest 10 day(s).
| Time | Temp. | Humidity | Pressure | Rain* | Wind** | Luminosity | Snow |
|---|---|---|---|---|---|---|---|
| 1777735383 | 21.11° C | 31% | 1092.7 hPa | 0 mm | - | 151 W/m² | - |
| 1777735338 | 21.11° C | 31% | 1092.8 hPa | 0 mm | - | 153 W/m² | - |
| 1777734963 | 21.11° C | 31% | 1093 hPa | 0 mm | - | 163 W/m² | - |
| 1777734483 | 21.11° C | 31% | 1093.1 hPa | 0 mm | - | 176 W/m² | - |
| 1777734423 | 21.11° C | 31% | 1093 hPa | 0 mm | - | 177 W/m² | - |
| 1777734363 | 21.11° C | 31% | 1093.3 hPa | 0 mm | - | 179 W/m² | - |
| 1777734303 | 21.11° C | 31% | 1093.1 hPa | 0 mm | - | 181 W/m² | - |
| 1777734123 | 21.11° C | 31% | 1093.1 hPa | 0 mm | - | 153 W/m² | - |
| 1777733703 | 21.11° C | 30% | 1093.2 hPa | 0 mm | - | 198 W/m² | - |
| 1777733657 | 21.11° C | 30% | 1093.3 hPa | 0 mm | - | 199 W/m² | - |
| 1777732863 | 21.67° C | 30% | 1093.3 hPa | 0 mm | - | 172 W/m² | - |
| 1777732637 | 21.67° C | 30% | 1093.2 hPa | 0 mm | - | 39 W/m² | - |
| 1777731963 | 21.67° C | 31% | 1093.4 hPa | 0 mm | - | 248 W/m² | - |
| 1777731678 | 21.11° C | 31% | 1093.5 hPa | 0 mm | - | 257 W/m² | - |
| 1777731363 | 21.11° C | 30% | 1093.4 hPa | 0 mm | - | 266 W/m² | - |
| 1777730883 | 21.67° C | 30% | 1093.5 hPa | 0 mm | - | 281 W/m² | - |
| 1777730763 | 21.67° C | 31% | 1093.7 hPa | 0 mm | - | 283 W/m² | - |
| 1777730177 | 21.67° C | 30% | 1093.7 hPa | 0 mm | - | 263 W/m² | - |
| 1777730103 | 21.67° C | 31% | 1093.7 hPa | 0 mm | - | 304 W/m² | - |
| 1777729923 | 21.67° C | 30% | 1093.8 hPa | 0 mm | - | 308 W/m² | - |
| 1777729623 | 21.67° C | 30% | 1093.9 hPa | 0 mm | - | 317 W/m² | - |
| 1777729443 | 21.67° C | 30% | 1093.7 hPa | 0 mm | - | 323 W/m² | - |
| 1777729397 | 21.67° C | 30% | 1094 hPa | 0 mm | - | 324 W/m² | - |
| 1777729323 | 21.67° C | 30% | 1093.8 hPa | 0 mm | - | 326 W/m² | - |
| 1777729203 | 21.67° C | 31% | 1093.8 hPa | 0 mm | - | 330 W/m² | - |
* Rain latest hour (hover to see other rain measurements)
** Current wind speed in m/s (hover to see current wind gust speed)